Погода в Бохтаре

Таджикистан     37°50′18″N   68°46′45″E
темп.,
°C
ветер,
м/с
пор.,
м/с
влажн.,
%
обл.,
%
осадки,
мм/ч
давл.,
гПа
погр.,
м
9 мая, вс
вс923:00+25ссв114478 0.0 101111
02:00+23с344728 0.0 101156
05:00+22ссв235121 0.0 101148
08:00+25ссв33425 0.0 1012290
11:00+30ссв10305 0.0 10111072
14:00+33ююз222319 0.0 10082915
17:00+33сз222332 0.0 10062680
20:00+27с35385 0.0 100775
10 мая, пн
пн1023:00+25с33419 0.0 100736
02:00+24ссв344485 0.0 100759
05:00+22с334762 0.0 100741
08:00+26ссв233920 0.0 1008263
11:00+30з212990 0.0 10061148
14:00+33ююз222492 0.0 10052354
17:00+33юз4324100 0.0 10032541
20:00+27юз6103798 0.4 1005349
11 мая, вт
вт1123:00+25ююз3547100 1.3 1007136
02:00+22с236255 0.8 100868
05:00+20ссз1172100 0.8 101041
08:00+23ююз3558100 0.0 1012584
11:00+28юз563594 0.0 10122100
14:00+30юз5525100 0.0 10112989
17:00+30ююз44235 0.0 10103145
20:00+24св5747100 0.0 1013306
12 мая, ср
ср1223:00+20ссв356195 0.3 1013178
02:00+20с236086 0.2 101290
05:00+20ссв125894 0.3 101249
08:00+22в114930 0.0 1013360
11:00+26ююз233882 0.0 10121317
14:00+29ююз76224 0.0 10092418
17:00+29ю551742 0.2 10091681
20:00+18с101363100 0.1 1011351
13 мая, чт
чт1323:00+19ссв466028 0.1 1012164
02:00+18с355933 0.0 101199
05:00+17с34581 0.0 101166
08:00+21ссв23431 0.0 1012338
11:00+26вюв11301 0.0 10111337
14:00+29юз11240 0.0 10092395
17:00+30ю22231 0.0 10072551
20:00+26ю23308 0.0 100822